Weather History for KTCM - February, 2012

Change the Weather History Date:

Sunday, February 5, 2012

  Actual Average Record
Temperature  
Mean Temperature 40 °F -  
Max Temperature 56 °F 46 °F 60 °F (1978)
Min Temperature 24 °F 30 °F 12 °F (1989)
Degree Days  
Heating Degree Days 25    
Moisture  
Dew Point 31 °F    
Average Humidity 79    
Maximum Humidity 99    
Minimum Humidity 44    
Precipitation  
Precipitation 0.00 in - - ()
Sea Level Pressure  
Sea Level Pressure 30.20 in    
Wind  
Wind Speed 2 mph (NNE)    
Max Wind Speed 8 mph    
Max Gust Speed -    
Visibility 10 miles    
Events      
Averages and records for this station are not official NWS values.
T = Trace of Precipitation, MM = Missing Value Source: NWS Daily Summary

Daily Weather History Graph

Daily Weather History Graph

Search for Another Location

Airport or City:

Trip Planner

Search our weather history database for the weather conditions in past years. The results will help you decide how hot, cold, wet, or windy it might be!

Date:

Astronomy

Feb. 05, 2012 Rise Set
Actual Time 7:30 AM PST 5:18 PM PST
Civil Twilight 6:58 AM PST 5:50 PM PST
Nautical Twilight 6:21 AM PST 6:26 PM PST
Astronomical Twilight 5:46 AM PST 7:02 PM PST
Moon 3:17 PM PST (2/5) 5:50 AM PST (2/5)
Length of Visible Light 10h 52m
Length of Day
9h 47m
Waxing Gibbous, 95% of the Moon is Illuminated
Feb 5
Waxing Gibbous
Feb 7
Full
Feb 14
Last Quarter
Feb 21
New
Feb 29
First Quarter

Hourly Weather History & Observations

Time (PST) Temp. Windchill Dew Point Humidity Pressure Visibility Wind Dir Wind Speed Gust Speed Precip Events Conditions
12:55 AM 28.0 °F - 27.3 °F 97% 30.20 in 10.0 mi Calm Calm - N/A   Clear
1:55 AM 27.9 °F - 27.1 °F 97% 30.21 in 10.0 mi Calm Calm - N/A   Clear
2:55 AM 27.7 °F 23.8 °F 27.1 °F 98% 30.22 in 10.0 mi SSE 3.5 mph - N/A   Clear
3:55 AM 25.9 °F - 24.8 °F 96% 30.23 in 10.0 mi Calm Calm - N/A   Clear
4:55 AM 27.5 °F 23.6 °F 27.1 °F 99% 30.23 in 10.0 mi SSW 3.5 mph - N/A   Clear
5:55 AM 24.6 °F 18.8 °F 23.5 °F 96% 30.22 in 10.0 mi South 4.6 mph - N/A   Clear
6:55 AM 27.0 °F - 26.4 °F 98% 30.22 in 10.0 mi Calm Calm - N/A   Clear
7:55 AM 25.5 °F 18.7 °F 25.0 °F 98% 30.24 in 10.0 mi South 5.8 mph - N/A   Clear
8:55 AM 31.5 °F - 30.2 °F 95% 30.25 in 10.0 mi Calm Calm - N/A   Clear
9:55 AM 38.8 °F - 34.0 °F 83% 30.25 in 10.0 mi Calm Calm - N/A   Clear
10:55 AM 43.5 °F - 34.3 °F 70% 30.25 in 10.0 mi Calm Calm - N/A   Clear
11:55 AM 48.2 °F - 33.8 °F 58% 30.24 in 10.0 mi Calm Calm - N/A   Clear
12:55 PM 51.8 °F - 34.5 °F 52% 30.22 in 10.0 mi North 4.6 mph - N/A   Clear
1:55 PM 55.4 °F - 33.6 °F 44% 30.20 in 10.0 mi North 3.5 mph - N/A   Clear
2:55 PM 56.7 °F - 37.6 °F 49% 30.18 in 10.0 mi NW 4.6 mph - N/A   Clear
3:55 PM 56.1 °F - 35.4 °F 46% 30.17 in 10.0 mi North 8.1 mph - N/A   Clear
4:55 PM 52.2 °F - 34.3 °F 51% 30.17 in 10.0 mi NNE 6.9 mph - N/A   Clear
5:55 PM 48.2 °F - 34.0 °F 58% 30.17 in 10.0 mi NNE 5.8 mph - N/A   Clear
6:55 PM 45.7 °F - 35.8 °F 68% 30.16 in 10.0 mi Calm Calm - N/A   Clear
7:55 PM 43.3 °F - 35.2 °F 73% 30.16 in 10.0 mi Calm Calm - N/A   Clear
8:55 PM 34.2 °F - 31.1 °F 89% 30.16 in 10.0 mi Calm Calm - N/A   Clear
9:55 PM 33.4 °F - 31.8 °F 94% 30.14 in 10.0 mi Calm Calm - N/A   Clear
10:55 PM 30.7 °F - 29.3 °F 94% 30.14 in 10.0 mi Calm Calm - N/A   Clear
11:55 PM 31.6 °F - 31.1 °F 98% 30.13 in 9.0 mi Calm Calm - N/A   Clear